When you browse on this site, cookies collect data to enhance your experience and personalize the content and advertising you see.
Visit our Privacy Policy to learn more. By continuing to use the site, you agree to this use of cookies and data.
  • In Österreich
  • Länderverzeichnis
  • Für 7 Tage
  • Wassertemperatur
  • Satellitenkarten
  • Wetterkarte
  • News
  • Widgets
  • user-avatar
    Anmelden

    Stündliche Wetter Vila-Real

    Heute, 21 März, Donnerstag

    Zeit Temperatur Niederschläge Wind Luftdruck Luftfeuchtigkeit
    00:00 +6°C° 0 mm 2 m/S 728 mmHg 64%
    01:00 +6°C° 0 mm 2 m/S 728 mmHg 64%
    02:00 +5°C° 0 mm 2 m/S 728 mmHg 65%
    03:00 +5°C° 0 mm 2 m/S 728 mmHg 65%
    04:00 +5°C° 0 mm 2 m/S 728 mmHg 64%
    05:00 +4°C° 0 mm 2 m/S 728 mmHg 62%
    06:00 +5°C° 0 mm 2 m/S 728 mmHg 58%
    07:00 +7°C° 0 mm 2 m/S 728 mmHg 54%
    08:00 +8°C° 0 mm 2 m/S 728 mmHg 50%
    09:00 +10°C° 0 mm 2 m/S 728 mmHg 46%
    10:00 +11°C° 0 mm 3 m/S 728 mmHg 42%
    11:00 +13°C° 0 mm 3 m/S 728 mmHg 39%
    12:00 +15°C° 0 mm 2 m/S 727 mmHg 37%
    13:00 +16°C° 0 mm 2 m/S 727 mmHg 36%
    14:00 +17°C° 0 mm 2 m/S 727 mmHg 34%
    15:00 +16°C° 0 mm 2 m/S 727 mmHg 38%
    16:00 +15°C° 0 mm 1 m/S 726 mmHg 42%
    17:00 +14°C° 0 mm 1 m/S 726 mmHg 46%
    18:00 +13°C° 0 mm 1 m/S 726 mmHg 48%
    19:00 +10°C° 0 mm 0 m/S 727 mmHg 49%
    20:00 +9°C° 0 mm 0 m/S 727 mmHg 51%
    21:00 +9°C° 0 mm 1 m/S 727 mmHg 52%
    22:00 +9°C° 0 mm 1 m/S 727 mmHg 53%
    23:00 +9°C° 0 mm 1 m/S 727 mmHg 54%

    Morgen, 22 März, Freitag

    Zeit Temperatur Niederschläge Wind Luftdruck Luftfeuchtigkeit
    00:00 +8°C° 0 mm 1 m/S 727 mmHg 55%
    01:00 +8°C° 0 mm 1 m/S 727 mmHg 57%
    02:00 +7°C° 0 mm 1 m/S 727 mmHg 58%
    03:00 +7°C° 0 mm 1 m/S 727 mmHg 59%
    04:00 +7°C° 0 mm 1 m/S 727 mmHg 60%
    05:00 +6°C° 0 mm 1 m/S 727 mmHg 62%
    06:00 +8°C° 0 mm 1 m/S 728 mmHg 57%
    07:00 +10°C° 0 mm 1 m/S 728 mmHg 53%
    08:00 +12°C° 0 mm 1 m/S 729 mmHg 49%
    09:00 +14°C° 0 mm 1 m/S 729 mmHg 46%
    10:00 +16°C° 0 mm 1 m/S 729 mmHg 42%
    11:00 +19°C° 0 mm 1 m/S 729 mmHg 39%
    12:00 +19°C° 0 mm 1 m/S 728 mmHg 37%
    13:00 +20°C° 0 mm 1 m/S 728 mmHg 36%
    14:00 +20°C° 0 mm 1 m/S 728 mmHg 35%
    15:00 +19°C° 0 mm 1 m/S 728 mmHg 39%
    16:00 +18°C° 0 mm 1 m/S 727 mmHg 43%
    17:00 +16°C° 0 mm 1 m/S 727 mmHg 47%
    18:00 +14°C° 0 mm 1 m/S 727 mmHg 49%
    19:00 +13°C° 0 mm 1 m/S 728 mmHg 51%
    20:00 +11°C° 0 mm 1 m/S 728 mmHg 53%
    21:00 +11°C° 0 mm 1 m/S 728 mmHg 54%
    22:00 +10°C° 0 mm 1 m/S 728 mmHg 56%
    23:00 +10°C° 0 mm 1 m/S 728 mmHg 57%

    übermorgen, 23 März, Samstag

    Zeit Temperatur Niederschläge Wind Luftdruck Luftfeuchtigkeit
    00:00 +9°C° 0 mm 1 m/S 728 mmHg 58%
    01:00 +9°C° 0 mm 1 m/S 727 mmHg 59%
    02:00 +9°C° 0 mm 1 m/S 727 mmHg 60%
    03:00 +8°C° 0 mm 1 m/S 727 mmHg 60%
    04:00 +8°C° 0 mm 1 m/S 727 mmHg 61%
    05:00 +8°C° 0 mm 1 m/S 727 mmHg 61%
    06:00 +9°C° 0 mm 1 m/S 727 mmHg 57%
    07:00 +10°C° 0 mm 2 m/S 727 mmHg 53%
    08:00 +13°C° 0 mm 2 m/S 727 mmHg 48%
    09:00 +15°C° 0 mm 2 m/S 727 mmHg 45%
    10:00 +17°C° 0 mm 2 m/S 727 mmHg 41%
    11:00 +19°C° 0 mm 2 m/S 727 mmHg 37%
    12:00 +19°C° 0 mm 2 m/S 726 mmHg 36%
    13:00 +20°C° 0 mm 2 m/S 726 mmHg 35%
    14:00 +21°C° 0 mm 2 m/S 725 mmHg 34%
    15:00 +20°C° 0 mm 2 m/S 725 mmHg 39%
    16:00 +19°C° 0 mm 2 m/S 725 mmHg 43%
    17:00 +19°C° 0 mm 1 m/S 725 mmHg 47%
    18:00 +17°C° 0 mm 2 m/S 725 mmHg 50%
    19:00 +15°C° 0 mm 2 m/S 725 mmHg 52%
    20:00 +13°C° 0 mm 2 m/S 725 mmHg 55%
    21:00 +13°C° 0 mm 2 m/S 725 mmHg 56%
    22:00 +12°C° 0 mm 2 m/S 725 mmHg 58%
    23:00 +12°C° 0 mm 2 m/S 725 mmHg 59%

    24 März, Sonntag

    Zeit Temperatur Niederschläge Wind Luftdruck Luftfeuchtigkeit
    00:00 +10°C° 0 mm 2 m/S 725 mmHg 61%
    01:00 +10°C° 0 mm 2 m/S 725 mmHg 62%
    02:00 +10°C° 0 mm 2 m/S 725 mmHg 63%
    03:00 +9°C° 0 mm 2 m/S 725 mmHg 63%
    04:00 +9°C° 0 mm 2 m/S 725 mmHg 63%
    05:00 +9°C° 0 mm 2 m/S 725 mmHg 63%
    06:00 +10°C° 0 mm 2 m/S 725 mmHg 59%
    07:00 +12°C° 0 mm 3 m/S 725 mmHg 55%
    08:00 +14°C° 0 mm 3 m/S 726 mmHg 50%
    09:00 +16°C° 0 mm 3 m/S 726 mmHg 46%
    10:00 +18°C° 0 mm 4 m/S 726 mmHg 42%
    11:00 +20°C° 0 mm 4 m/S 726 mmHg 38%
    12:00 +21°C° 0 mm 4 m/S 725 mmHg 36%
    13:00 +21°C° 0 mm 5 m/S 725 mmHg 33%
    14:00 +22°C° 0 mm 5 m/S 724 mmHg 30%
    15:00 +21°C° 0 mm 4 m/S 724 mmHg 34%
    16:00 +20°C° 0 mm 4 m/S 724 mmHg 37%
    17:00 +19°C° 0 mm 3 m/S 723 mmHg 41%
    18:00 +17°C° 0 mm 3 m/S 724 mmHg 43%
    19:00 +16°C° 0 mm 3 m/S 724 mmHg 45%
    20:00 +13°C° 0 mm 3 m/S 724 mmHg 47%
    21:00 +13°C° 0 mm 3 m/S 724 mmHg 50%
    22:00 +13°C° 0 mm 2 m/S 724 mmHg 54%
    23:00 +12°C° 0 mm 2 m/S 724 mmHg 58%

    25 März, Montag

    Zeit Temperatur Niederschläge Wind Luftdruck Luftfeuchtigkeit
    00:00 +12°C° 0 mm 2 m/S 724 mmHg 60%
    01:00 +10°C° 0 mm 2 m/S 724 mmHg 63%
    02:00 +10°C° 0 mm 2 m/S 724 mmHg 66%
    03:00 +9°C° 0 mm 2 m/S 724 mmHg 67%
    04:00 +9°C° 0 mm 2 m/S 724 mmHg 67%
    05:00 +8°C° 0 mm 2 m/S 724 mmHg 68%
    06:00 +10°C° 0 mm 2 m/S 724 mmHg 62%
    07:00 +11°C° 0 mm 3 m/S 724 mmHg 55%
    08:00 +13°C° 0 mm 3 m/S 724 mmHg 49%
    09:00 +14°C° 0 mm 4 m/S 724 mmHg 45%
    10:00 +17°C° 0 mm 4 m/S 724 mmHg 41%
    11:00 +19°C° 0 mm 4 m/S 724 mmHg 37%
    12:00 +20°C° 0 mm 5 m/S 723 mmHg 35%
    13:00 +21°C° 0 mm 5 m/S 723 mmHg 33%
    14:00 +22°C° 0 mm 5 m/S 722 mmHg 31%
    15:00 +21°C° 0 mm 5 m/S 722 mmHg 35%
    16:00 +20°C° 0 mm 4 m/S 722 mmHg 39%
    17:00 +19°C° 0 mm 4 m/S 722 mmHg 43%
    18:00 +17°C° 0 mm 3 m/S 722 mmHg 45%
    19:00 +16°C° 0 mm 3 m/S 722 mmHg 47%
    20:00 +14°C° 0 mm 3 m/S 723 mmHg 48%
    21:00 +13°C° 0 mm 3 m/S 723 mmHg 51%
    22:00 +13°C° 0 mm 2 m/S 723 mmHg 53%
    23:00 +12°C° 0 mm 2 m/S 723 mmHg 56%

    26 März, Dienstag

    Zeit Temperatur Niederschläge Wind Luftdruck Luftfeuchtigkeit
    00:00 +12°C° 0 mm 2 m/S 723 mmHg 60%
    01:00 +10°C° 0 mm 2 m/S 723 mmHg 63%
    02:00 +10°C° 0 mm 2 m/S 723 mmHg 67%
    03:00 +10°C° 0 mm 2 m/S 723 mmHg 70%
    04:00 +9°C° 0 mm 2 m/S 723 mmHg 72%
    05:00 +9°C° 0 mm 2 m/S 723 mmHg 75%
    06:00 +10°C° 0 mm 2 m/S 723 mmHg 70%
    07:00 +12°C° 0 mm 2 m/S 723 mmHg 64%
    08:00 +14°C° 0 mm 2 m/S 723 mmHg 58%
    09:00 +16°C° 0 mm 3 m/S 723 mmHg 53%
    10:00 +18°C° 0 mm 3 m/S 723 mmHg 47%
    11:00 +20°C° 0 mm 3 m/S 723 mmHg 42%
    12:00 +21°C° 0 mm 3 m/S 723 mmHg 39%
    13:00 +22°C° 0 mm 3 m/S 722 mmHg 35%
    14:00 +24°C° 0 mm 3 m/S 722 mmHg 32%
    15:00 +22°C° 0 mm 3 m/S 722 mmHg 34%
    16:00 +21°C° 0 mm 3 m/S 722 mmHg 37%
    17:00 +20°C° 0 mm 2 m/S 721 mmHg 40%
    18:00 +18°C° 0 mm 2 m/S 722 mmHg 42%
    19:00 +17°C° 0 mm 2 m/S 722 mmHg 44%
    20:00 +14°C° 0 mm 3 m/S 722 mmHg 46%
    21:00 +14°C° 0 mm 2 m/S 722 mmHg 49%
    22:00 +14°C° 0 mm 2 m/S 722 mmHg 52%
    23:00 +13°C° 0 mm 2 m/S 722 mmHg 55%
    Mehr zeigen